Showing default

SKYSAT C7, 42991

Orbit data source: Space-Track

SKYSAT C7, 42991 is a payload satellite owned by Terra Bella (US) in SSO that was launched on Tue, 31 Oct 2017 UTC via a MINOTAUR-C 3210 launch vehicle from the Air Force Western Test Range (AFWTR). Payload-class satellites include a variety of spacecraft equipped with specific instruments for various scientific and technological missions. These include communications satellites like Starlink; space stations such as the ISS; scientific satellites like the Hubble; Earth observation satellites from companies like Planet Labs, Umbra, and HawkEye 360; GPS; miniature CubeSats for education and research; and military/defense satellites.

Loading next visibility...
Identifier
42991, 2017-068E
Orbit
SSO
Country
Flag of USUS
Related business
Manufacturer
Maxar SSL
Mission
Operational Commercial Imaging
Bus & Motor
SKYSAT-GEN2, Unknown motor
Mass
110 kg wet, 110 kg dry
Launch date (UTC)
2017-10-31 (8 years ago)
Launch vehicle
MINOTAUR-C 3210
Launch site
Air Force Western Test Range (AFWTR)
Object type
Payload
Rocket body
Debris
Shape & HBR
Box, 1.0 m
Radar Cross Section
0.888 m², Medium (>0.1 m² and < 1m²)

Expand to show TLE details & history
Last TLE update: 10 hours ago

TLE from 10 hours ago
0 SKYSAT C7
1 42991U 17068E   25300.93583459  .00014827  00000-0  48079-3 0  9996
2 42991  97.4258  71.8523 0004514 200.4503 159.6559 15.32074762446760
Epoch: 2025-10-27T22:27Z
TLE epoch observation values (Epoch: 2025-10-27T22:27:36.108Z)
Latitude
0.00001°
Longitude
58.42131°
Altitude
475.628 km
Speed
7.626 km/s
True Right ascension
04h 47m 24s
True Declination
0° 00' 00"
Sunlit
Object was in full shadow at epoch
Visualization orbit readout
Latitude
Unknown
Longitude
Unknown
Altitude
Unknown
Speed
Unknown
Apparent Right ascension
Unknown
Apparent Declination
Unknown
Sunlit
N/A
Visualization observer readout
Local Sidereal Time
03:25:18
Azimuth
Unknown
Elevation
Unknown
Doppler factor
Unknown
Orbital elements
Apogee altitude
469.663 km
Perigee altitude
463.484 km
Semi-major axis
6,844.711 km
Eccentricity
0.00045
Inclination
97.4258°
RAAN
71.8523°
Arg. of periapsis
200.4503°
True anomaly
159.67387°
Mean anomaly
159.6559°
Eccentric anomaly
159.66489°
Mean motion
3.83275 °/min
Orbital period
93.93 mins
BSTAR
0.00048079
Loading maneuver chart data...
Computing Atmospheric mass density...
Loading historical data...
Loading historical data...
Loading historical data...
Loading historical data...
Loading historical data...
Loading historical data...
Loading historical data...

Documentation

Showing up to 5 results
|